Swanton, VT

11:20 PM EDT on September 25, 2016 (GMT -0400)
Franklin County State

Weather History for KFSO - April, 2013

Change the Weather History Date:

Thursday, April 18, 2013

  Actual Average (KPBG) Record (KPBG)
Temperature  
Mean Temperature 52 °F 44 °F  
Max Temperature 67 °F 55 °F 83 °F (1976)
Min Temperature 36 °F 34 °F 22 °F (1985)
Degree Days  
Heating Degree Days 14 21  
Month to date heating degree days 450  
Since 1 July heating degree days 7133  
Cooling Degree Days 0 0  
Month to date cooling degree days 0  
Year to date cooling degree days 0  
Growing Degree Days 2 (Base 50)    
Moisture  
Dew Point 30 °F    
Average Humidity 48    
Maximum Humidity 72    
Minimum Humidity 29    
Precipitation  
Precipitation 0.00 in - 1.01 in (1967)
Month to date precipitation  
Year to date precipitation  
Sea Level Pressure  
Sea Level Pressure 30.14 in    
Wind  
Wind Speed 9 mph (SSE)    
Max Wind Speed 26 mph    
Max Gust Speed 44 mph    
Visibility 10 miles    
Events Rain    
T = Trace of Precipitation, MM = Missing Value Source: NWS Daily Summary

Daily Weather History Graph

Daily Weather History Graph

Search for Another Location

Airport or City:

Trip Planner

Search our weather history database for the weather conditions in past years. The results will help you decide how hot, cold, wet, or windy it might be!

Date:

Astronomy

Apr. 18, 2013 Rise Set
Actual Time 6:02 AM EDT 7:41 PM EDT
Civil Twilight 5:31 AM EDT 8:12 PM EDT
Nautical Twilight 4:53 AM EDT 8:50 PM EDT
Astronomical Twilight 4:13 AM EDT 9:31 PM EDT
Moon 12:08 PM EDT (4/18) 1:58 AM EDT (4/18)
Length of Visible Light 14h 41m
Length of Day
13h 39m
First Quarter, 51% of the Moon is Illuminated
Apr 18
First Quarter
Apr 25
Full
May 2
Last Quarter
May 9
New
May 18
First Quarter

Hourly Weather History & Observations

Time (EDT) Temp. Windchill Dew Point Humidity Pressure Visibility Wind Dir Wind Speed Gust Speed Precip Events Conditions
12:35 AM 36.7 °F 31.2 °F 26.6 °F 67% 30.35 in 10.0 mi East 6.9 mph - N/A   Clear
12:55 AM 37.4 °F 32.8 °F 26.4 °F 65% 30.33 in 10.0 mi East 5.8 mph - N/A   Clear
1:15 AM 37.6 °F 32.3 °F 26.4 °F 64% 30.34 in 10.0 mi ESE 6.9 mph - N/A   Clear
1:35 AM 36.7 °F 30.5 °F 26.8 °F 67% 30.34 in 10.0 mi East 8.1 mph - N/A   Clear
1:55 AM 36.7 °F 34.1 °F 27.1 °F 68% 30.34 in 10.0 mi SSE 3.5 mph - N/A   Clear
2:15 AM 36.7 °F - 28.0 °F 71% 30.34 in 10.0 mi Calm Calm - N/A   Clear
2:35 AM 36.7 °F - 28.4 °F 72% 30.33 in 10.0 mi Calm Calm - N/A   Clear
2:55 AM 36.7 °F 34.1 °F 27.7 °F 70% 30.34 in 10.0 mi East 3.5 mph - N/A   Clear
3:15 AM 36.7 °F 34.1 °F 26.6 °F 67% 30.36 in 10.0 mi East 3.5 mph - N/A   Clear
3:35 AM 36.7 °F 32.0 °F 26.6 °F 67% 30.35 in 10.0 mi East 5.8 mph - N/A   Clear
3:55 AM 39.2 °F 34.2 °F 24.1 °F 55% 30.35 in 10.0 mi East 6.9 mph - N/A   Clear
4:15 AM 39.2 °F 37.0 °F 24.3 °F 55% 30.36 in 10.0 mi East 3.5 mph - N/A   Clear
4:35 AM 39.2 °F 34.2 °F 25.7 °F 58% 30.35 in 10.0 mi ESE 6.9 mph - N/A   Clear
4:55 AM 39.2 °F 33.6 °F 25.7 °F 58% 30.33 in 10.0 mi ESE 8.1 mph - N/A   Scattered Clouds
5:15 AM 39.2 °F 34.2 °F 24.3 °F 55% 30.33 in 10.0 mi East 6.9 mph - N/A   Scattered Clouds
5:35 AM 39.2 °F 35.0 °F 22.8 °F 52% 30.33 in 10.0 mi ESE 5.8 mph - N/A   Mostly Cloudy
5:55 AM 39.2 °F 33.0 °F 21.4 °F 49% 30.32 in 10.0 mi ESE 9.2 mph - N/A   Mostly Cloudy
6:15 AM 40.5 °F 36.5 °F 21.4 °F 47% 30.33 in 10.0 mi SE 5.8 mph - N/A   Mostly Cloudy
6:35 AM 39.2 °F 37.0 °F 22.6 °F 52% 30.33 in 10.0 mi ESE 3.5 mph - N/A   Overcast
6:55 AM 40.5 °F - 23.5 °F 51% 30.33 in 10.0 mi Calm Calm - N/A   Overcast
7:15 AM 40.5 °F - 25.5 °F 55% 30.33 in 10.0 mi Calm Calm - N/A   Overcast
7:35 AM 41.9 °F 39.0 °F 24.1 °F 49% 30.32 in 10.0 mi SE 4.6 mph - N/A   Overcast
7:55 AM 44.1 °F 41.5 °F 23.7 °F 45% 30.30 in 10.0 mi ESE 4.6 mph - N/A   Overcast
8:15 AM 46.8 °F - 23.5 °F 40% 30.29 in 10.0 mi ESE 5.8 mph - N/A   Overcast
8:35 AM 49.3 °F - 25.2 °F 39% 30.29 in 10.0 mi SE 8.1 mph - N/A Rain Light Rain
8:55 AM 49.3 °F - 25.7 °F 40% 30.27 in 10.0 mi SE 6.9 mph - N/A Rain Light Rain
9:15 AM 49.3 °F - 25.7 °F 40% 30.26 in 10.0 mi SSE 10.4 mph - N/A   Mostly Cloudy
9:55 AM 51.4 °F - 27.1 °F 39% 30.25 in 10.0 mi SE 5.8 mph - N/A   Scattered Clouds
10:15 AM 54.5 °F - 26.6 °F 34% 30.24 in 10.0 mi South 8.1 mph - N/A   Mostly Cloudy
10:35 AM 51.8 °F - 27.9 °F 40% 30.24 in 10.0 mi SSW 5.8 mph - N/A   Mostly Cloudy
10:55 AM 49.3 °F - 30.4 °F 48% 30.23 in 10.0 mi South 9.2 mph - N/A Rain Light Rain
11:15 AM 52.2 °F - 28.0 °F 39% 30.22 in 10.0 mi SSE 10.4 mph - N/A   Overcast
11:35 AM 52.7 °F - 25.7 °F 35% 30.21 in 10.0 mi South 11.5 mph 20.7 mph N/A   Overcast
11:55 AM 51.8 °F - 24.6 °F 35% 30.21 in 10.0 mi South 12.7 mph 20.7 mph N/A   Overcast
12:15 PM 49.3 °F - 32.4 °F 52% 30.20 in 10.0 mi SSE 11.5 mph 21.9 mph N/A Rain Light Rain
12:35 PM 48.7 °F - 36.9 °F 64% 30.19 in 10.0 mi SSE 15.0 mph 20.7 mph N/A Rain Light Rain
12:55 PM 46.8 °F - 36.7 °F 68% 30.17 in 7.0 mi SSE 9.2 mph - N/A   Drizzle
1:15 PM 46.8 °F - 38.3 °F 72% 30.15 in 10.0 mi SE 10.4 mph - N/A   Light Drizzle
1:35 PM 47.1 °F - 37.9 °F 70% 30.13 in 10.0 mi SE 11.5 mph - N/A Rain Light Rain
1:55 PM 49.3 °F - 39.4 °F 69% 30.11 in 10.0 mi ESE 9.2 mph - N/A   Overcast
2:15 PM 49.5 °F - 38.3 °F 65% 30.08 in 10.0 mi SE 12.7 mph - N/A   Overcast
2:35 PM 56.5 °F - 39.0 °F 52% 30.06 in 10.0 mi SSE 15.0 mph 25.3 mph N/A   Scattered Clouds
2:55 PM 58.3 °F - 36.0 °F 43% 30.03 in 10.0 mi SSE 15.0 mph 26.5 mph N/A   Scattered Clouds
3:15 PM 61.7 °F - 36.1 °F 39% 30.01 in 10.0 mi SSE 19.6 mph 31.1 mph N/A   Scattered Clouds
3:35 PM 60.8 °F - 34.0 °F 37% 29.98 in 10.0 mi SSE 17.3 mph 25.3 mph N/A   Clear
3:55 PM 61.0 °F - 34.0 °F 36% 29.98 in 10.0 mi South 16.1 mph 29.9 mph N/A   Clear
4:15 PM 62.2 °F - 33.3 °F 34% 29.96 in 10.0 mi South 21.9 mph 32.2 mph N/A   Clear
4:35 PM 64.4 °F - 33.8 °F 32% 29.94 in 10.0 mi South 18.4 mph 33.4 mph N/A   Clear
4:55 PM 64.4 °F - 32.7 °F 31% 29.93 in 10.0 mi South 16.1 mph 34.5 mph N/A   Clear
5:15 PM 67.1 °F - 34.0 °F 29% 29.92 in 10.0 mi South 25.3 mph 36.8 mph N/A   Clear
5:35 PM 66.2 °F - 34.3 °F 31% 29.91 in 10.0 mi South 17.3 mph 39.1 mph N/A   Clear
5:55 PM 64.4 °F - 34.0 °F 32% 29.90 in 10.0 mi South 19.6 mph 31.1 mph N/A   Clear
6:15 PM 64.4 °F - 34.0 °F 32% 29.89 in 10.0 mi South 19.6 mph 33.4 mph N/A   Clear
6:35 PM 64.4 °F - 34.0 °F 32% 29.90 in 10.0 mi South 16.1 mph 35.7 mph N/A   Clear
6:55 PM 63.5 °F - 33.3 °F 32% 29.88 in 10.0 mi South 16.1 mph 35.7 mph N/A   Clear
7:15 PM 62.6 °F - 32.9 °F 33% 29.88 in 10.0 mi South 18.4 mph 28.8 mph N/A   Clear
7:35 PM 61.9 °F - 33.1 °F 34% 29.87 in 10.0 mi South 15.0 mph 27.6 mph N/A   Clear
7:55 PM 61.9 °F - 33.1 °F 34% 29.87 in 10.0 mi South 15.0 mph 28.8 mph N/A   Clear
8:15 PM 61.9 °F - 33.8 °F 35% 29.87 in 10.0 mi South 15.0 mph 29.9 mph N/A   Clear
8:35 PM 61.3 °F - 34.2 °F 36% 29.86 in 10.0 mi South 20.7 mph 36.8 mph N/A   Clear
8:55 PM 60.8 °F - 34.9 °F 38% 29.84 in 10.0 mi South 24.2 mph 39.1 mph N/A   Clear
9:35 PM 60.3 °F - 35.8 °F 40% 29.86 in 10.0 mi South 18.4 mph 34.5 mph N/A   Clear
11:15 PM 59.4 °F - 39.0 °F 47% 29.82 in 10.0 mi South 20.7 mph 32.2 mph N/A   Clear
11:35 PM 59.4 °F - 39.9 °F 49% 29.80 in 10.0 mi South 24.2 mph 35.7 mph N/A   Clear
11:55 PM 59.0 °F - 40.3 °F 50% 29.81 in 10.0 mi South 26.5 mph 43.7 mph N/A   Clear